Wind_Speed
27 26 26 27 28 29 29 28 27 26 26 26 25 25 23 22 22 22 23 23 23 23 24 23 23 23 24 24 24 24 24 23 24 24 23 23 23 23 23 24 24 24 24 23
28 27 26 26 26 27 27 27 28 27 27 26 26 25 24 23 23 23 23 23 23 23 24 24 24 24 24 25 25 25 25 25 25 25 25 25 25 25 25 26 26 25 25 24
26 26 26 28 27 26 26 27 28 27 26 26 26 25 25 25 24 24 24 25 25 24 24 23 24 24 25 25 25 26 27 26 27 27 27 28 27 27 27 27 26 26 25 25
27 27 28 28 27 27 26 26 27 28 28 27 26 25 26 26 25 26 26 26 26 26 26 25 25 26 26 27 28 29 29 29 29 29 29 29 29 28 27 27 27 27 26 27
27 27 29 31 29 27 27 27 28 29 28 27 26 26 26 26 27 28 28 28 27 28 28 28 28 28 28 29 30 32 31 31 31 31 31 31 31 30 29 29 28 28 28 28
28 27 28 31 29 27 28 29 29 28 28 29 28 28 28 27 28 28 29 30 30 30 30 30 30 30 30 30 31 31 32 32 32 32 32 32 32 31 30 30 30 30 29 29
29 29 30 31 29 28 29 29 28 28 28 28 28 30 29 29 29 29 30 31 32 32 31 31 30 31 31 31 32 32 32 33 34 34 34 33 33 32 33 32 32 31 31 30
30 31 31 32 30 30 30 30 29 29 29 28 28 29 29 30 30 30 31 31 32 32 31 31 31 32 32 33 33 33 34 34 35 34 34 33 34 33 34 33 33 33 32 32
32 32 32 31 30 30 30 29 29 29 29 29 29 30 30 30 31 32 33 33 33 33 32 32 33 33 34 34 34 35 35 34 34 34 34 34 34 33 33 34 34 34 34 34
32 31 31 30 29 29 29 30 29 29 29 30 30 31 31 31 33 33 34 34 34 34 34 35 35 35 35 36 36 37 36 36 35 35 35 35 35 34 34 35 35 35 35 35
31 31 30 30 30 29 29 30 31 31 31 31 31 31 31 32 32 33 33 33 34 34 34 34 35 36 37 37 37 38 37 36 36 36 35 36 36 35 35 35 35 36 36 36
29 29 29 30 30 30 30 30 30 30 30 31 31 32 32 32 31 32 33 34 35 35 35 36 36 37 37 37 38 38 38 38 37 35 36 36 36 36 36 36 37 37 38 38
27 27 28 28 29 29 29 29 29 29 29 30 30 31 31 31 32 33 33 34 34 35 35 36 37 37 37 38 38 38 38 38 38 37 38 37 36 37 37 38 38 38 38 37
25 25 26 26 26 27 28 28 29 29 29 29 29 30 31 31 32 32 33 33 34 35 35 35 36 37 37 37 38 38 38 38 38 39 39 39 38 37 37 37 37 37 37 36
24 24 25 25 26 26 27 27 27 28 28 28 29 30 31 31 31 31 31 32 33 33 34 34 35 35 36 36 36 36 36 36 36 37 37 36 36 35 35 36 35 34 34 33
22 23 24 24 25 25 26 26 26 27 27 27 28 28 28 29 29 29 29 30 31 31 32 32 33 33 33 33 34 35 35 34 35 35 35 35 34 34 34 33 32 31 31 31
22 23 23 23 24 24 24 25 25 25 25 27 27 27 27 27 28 27 27 28 29 29 30 30 30 30 31 31 32 32 33 32 32 33 33 32 31 32 32 31 31 30 29 29
22 23 23 24 23 23 23 23 23 24 24 25 25 26 26 26 26 26 27 27 27 28 28 29 29 29 29 30 30 31 31 31 30 30 29 29 29 29 28 28 28 28 27 28
22 22 22 24 24 24 24 23 23 24 24 24 24 25 26 26 26 26 27 27 27 27 27 28 28 27 28 28 29 29 29 28 28 28 28 28 27 26 26 26 26 25 25 25
20 21 21 22 23 23 23 23 23 23 23 23 23 23 23 23 24 24 25 25 25 26 26 26 27 27 27 28 28 28 27 27 27 26 26 25 26 26 25 25 24 24 25 25
17 18 18 19 20 21 22 22 22 22 22 22 22 22 23 23 23 23 23 23 23 24 24 25 26 26 26 26 27 26 26 26 26 25 25 25 25 25 25 25 25 25 24 23
15 15 16 17 18 19 19 20 20 20 21 21 21 22 22 22 21 21 21 21 22 23 23 24 24 24 24 24 23 23 22 23 23 22 22 22 22 22 22 22 23 23 23 23
13 13 14 15 16 16 17 17 17 18 18 19 20 21 20 20 20 20 20 21 21 22 22 21 21 21 21 20 20 20 21 21 21 22 22 22 22 21 21 21 21 22 22 22
10 11 12 12 13 14 14 14 14 15 16 17 17 18 17 18 18 19 20 20 20 20 19 19 18 18 19 18 18 18 19 20 20 21 21 21 21 21 21 21 22 22 23 23
9 10 11 11 11 12 12 12 11 11 12 13 13 14 15 16 16 17 17 17 17 17 17 17 17 17 17 17 17 18 18 18 19 20 20 20 21 21 21 22 23 23 23 24
8 9 9 10 10 10 10 10 10 9 10 10 11 12 13 13 12 12 12 12 13 14 14 15 15 15 16 16 16 17 17 17 18 18 19 20 20 21 21 22 22 23 23 24
7 7 7 8 8 8 8 8 8 8 9 9 10 9 9 10 10 11 11 11 12 12 13 13 14 15 15 15 15 16 17 17 18 19 19 20 21 21 22 22 23 23 24 24
Wind_Direction
232 236 242 244 243 245 245 244 246 251 255 256 257 257 257 258 259 258 258 259 259 261 262 262 265 265 264 267 270 274 278 282 284 286 287 287 286 286 286 286 287 286 286 286
235 237 240 243 245 247 249 250 250 253 256 258 256 257 258 259 259 256 257 257 257 258 259 261 263 263 263 268 271 273 277 280 281 283 284 284 284 285 285 285 285 286 285 283
237 237 240 243 244 247 251 252 252 254 256 256 256 257 257 258 257 254 254 255 254 257 259 262 263 263 265 267 268 271 274 277 279 280 281 282 283 283 283 282 282 282 283 282
236 238 239 244 247 249 251 252 252 253 254 257 258 257 257 256 255 256 253 253 254 257 260 262 264 264 266 268 268 271 272 274 276 278 279 280 281 281 281 281 281 281 280 281
236 239 243 245 246 248 251 252 252 255 255 256 256 254 253 254 255 255 256 256 255 258 260 262 264 264 267 270 270 271 271 272 274 275 276 278 278 279 279 280 280 281 280 280
238 240 246 249 248 249 252 254 254 254 255 257 256 254 253 253 253 253 255 256 256 257 259 261 263 265 268 271 271 271 270 270 272 273 274 275 276 277 278 281 282 283 282 282
239 242 246 250 250 250 251 254 255 256 256 256 257 256 255 254 253 254 256 259 260 261 260 261 263 266 269 272 273 271 272 272 272 272 274 275 276 277 278 279 282 283 283 285
240 242 245 249 250 251 254 256 256 256 256 256 256 255 255 253 253 254 257 260 262 263 264 263 264 266 270 272 273 272 270 271 271 272 274 276 277 278 278 280 282 284 283 283
240 244 248 250 252 253 254 256 256 256 257 257 256 256 254 253 253 255 257 259 261 261 263 265 267 268 269 271 271 272 272 272 271 273 272 274 276 277 278 280 281 282 283 282
242 244 247 250 252 253 255 255 257 258 258 257 256 256 255 256 255 255 257 258 260 262 264 265 266 267 268 271 272 272 273 273 273 273 273 274 275 277 279 281 282 281 281 281
243 245 247 250 252 253 253 256 258 259 259 259 258 257 257 258 259 259 259 260 262 263 265 266 267 268 269 270 271 273 273 273 273 273 274 274 275 276 278 280 281 281 281 281
244 247 249 250 251 253 254 255 257 258 259 261 260 259 259 259 259 260 259 261 262 263 264 266 268 269 270 271 272 273 274 274 274 273 274 274 274 275 277 278 280 281 281 280
247 249 251 252 251 252 253 255 257 258 258 260 261 261 261 261 260 261 262 262 263 263 264 266 268 269 270 272 272 273 274 274 273 274 274 272 272 274 275 277 279 280 281 280
247 249 250 252 253 255 257 258 258 258 259 261 261 261 263 264 263 262 262 263 263 264 265 266 267 269 270 271 272 272 273 274 275 276 277 275 274 275 275 277 278 279 280 280
247 249 251 252 254 255 257 259 259 259 260 262 263 264 265 266 266 265 262 263 265 266 266 266 268 269 270 271 271 272 272 273 274 275 276 277 277 277 277 278 278 278 279 280
247 248 250 254 256 257 258 259 261 261 262 264 265 266 267 267 268 268 264 265 266 266 267 268 268 269 271 272 272 272 273 273 273 274 274 276 277 278 278 278 279 280 280 280
250 253 254 256 257 257 259 261 262 263 264 265 266 267 268 268 268 267 267 267 267 268 268 269 270 271 273 273 273 274 275 274 273 273 274 275 277 277 277 278 279 279 278 279
251 253 254 257 259 260 261 262 262 263 265 265 266 267 269 268 268 269 269 271 271 271 272 272 273 274 274 274 275 275 274 273 272 274 275 276 277 277 277 278 277 276 275 277
254 253 255 258 260 260 260 261 264 267 268 268 268 269 270 269 269 271 272 273 274 274 273 274 275 275 274 275 275 276 275 274 275 277 277 278 279 278 278 279 279 277 277 278
254 255 258 260 259 258 259 262 267 268 269 270 271 271 271 272 274 273 273 274 274 274 275 276 276 276 277 276 275 274 275 275 275 277 278 279 280 281 281 281 279 279 279 280
258 259 261 261 262 263 264 265 268 267 268 270 271 273 274 276 277 275 274 275 276 277 277 278 278 277 278 278 276 274 274 274 275 276 277 279 280 281 281 280 280 280 282 282
265 264 265 266 269 269 267 267 268 269 270 270 271 273 275 276 276 276 276 278 278 279 279 279 280 280 280 280 277 275 275 276 276 278 279 280 281 281 281 281 282 282 283 283
268 268 267 268 271 271 270 271 270 272 273 274 274 273 275 275 276 277 278 280 280 280 280 281 283 282 281 280 280 279 277 280 279 279 280 279 279 279 280 282 283 284 283 285
269 272 271 272 275 275 276 273 271 275 278 280 279 278 277 278 279 280 282 282 281 281 281 282 282 282 282 281 281 281 281 282 282 282 281 280 280 279 279 281 284 284 285 287
268 271 272 271 272 272 274 274 274 278 282 284 284 284 284 283 283 283 283 282 281 283 283 283 282 282 282 281 282 283 284 284 284 284 282 281 282 281 281 282 284 284 285 287
272 272 276 276 277 276 275 275 274 274 279 286 290 292 291 290 288 288 289 290 290 291 290 288 286 285 286 286 285 285 285 285 285 285 284 284 284 283 284 286 288 287 286 286
271 275 280 282 283 282 281 278 275 277 284 291 294 296 297 299 299 298 298 298 299 301 300 297 294 292 291 290 289 289 289 288 287 286 286 286 286 285 285 286 288 289 289 289
Height
5836 5839 5841 5843 5846 5848 5850 5852 5856 5858 5858 5859 5860 5860 5861 5863 5864 5865 5866 5867 5868 5869 5869 5869 5869 5869 5869 5868 5868 5867 5867 5866 5865 5864 5863 5861 5860 5859 5857 5856 5854 5853 5851 5850
5828 5832 5835 5837 5839 5841 5843 5845 5847 5849 5850 5851 5851 5853 5854 5856 5857 5858 5860 5860 5861 5862 5862 5863 5863 5863 5863 5862 5862 5861 5860 5860 5859 5858 5857 5855 5854 5853 5851 5849 5847 5846 5844 5843
5822 5825 5827 5829 5832 5834 5836 5838 5840 5841 5843 5843 5844 5846 5847 5849 5849 5851 5852 5853 5854 5855 5855 5856 5856 5856 5856 5856 5855 5854 5854 5853 5852 5851 5850 5848 5847 5846 5844 5842 5840 5839 5837 5836
5816 5818 5820 5824 5825 5827 5829 5830 5832 5833 5834 5835 5837 5839 5840 5841 5843 5844 5844 5845 5847 5848 5848 5848 5849 5849 5848 5848 5847 5847 5846 5845 5845 5843 5842 5840 5839 5838 5837 5835 5833 5831 5830 5829
5808 5811 5812 5815 5817 5820 5821 5822 5824 5825 5826 5828 5830 5831 5832 5834 5835 5837 5837 5838 5839 5840 5840 5841 5841 5841 5840 5840 5839 5838 5838 5837 5836 5835 5833 5832 5831 5830 5829 5827 5826 5824 5822 5821
5800 5804 5806 5807 5810 5812 5815 5814 5816 5818 5818 5820 5822 5824 5825 5826 5827 5828 5829 5830 5831 5832 5832 5832 5832 5832 5832 5831 5831 5830 5828 5828 5827 5826 5824 5823 5822 5821 5820 5819 5817 5816 5815 5813
5792 5795 5797 5798 5801 5804 5807 5808 5809 5810 5811 5812 5814 5815 5817 5818 5819 5820 5821 5822 5822 5822 5822 5823 5824 5824 5823 5823 5822 5821 5819 5818 5817 5817 5815 5814 5813 5812 5811 5810 5809 5808 5806 5804
5784 5787 5790 5790 5793 5796 5798 5799 5800 5801 5803 5804 5805 5806 5807 5809 5810 5811 5812 5813 5813 5813 5813 5813 5814 5814 5814 5813 5812 5810 5809 5808 5807 5807 5805 5804 5803 5802 5801 5800 5799 5797 5796 5794
5776 5780 5781 5782 5784 5786 5788 5790 5791 5793 5794 5795 5796 5797 5799 5800 5801 5802 5803 5804 5804 5804 5805 5805 5805 5804 5804 5803 5801 5800 5798 5797 5796 5796 5795 5794 5793 5792 5791 5790 5788 5787 5785 5784
5767 5770 5772 5774 5776 5777 5779 5781 5782 5784 5785 5786 5787 5789 5790 5791 5792 5793 5794 5794 5794 5795 5795 5795 5794 5794 5793 5792 5791 5790 5789 5788 5787 5786 5785 5784 5783 5782 5781 5780 5778 5776 5775 5773
5759 5762 5764 5766 5767 5769 5771 5772 5773 5775 5776 5777 5778 5779 5781 5781 5782 5783 5784 5784 5785 5785 5785 5784 5784 5783 5783 5781 5780 5779 5778 5777 5776 5775 5775 5773 5772 5771 5770 5769 5767 5765 5764 5762
5751 5753 5755 5758 5759 5760 5762 5763 5764 5766 5767 5768 5769 5770 5771 5772 5772 5773 5774 5774 5774 5774 5774 5774 5773 5773 5772 5771 5769 5769 5768 5767 5765 5764 5764 5762 5761 5761 5759 5758 5756 5754 5753 5751
5743 5745 5747 5749 5750 5752 5753 5754 5755 5757 5758 5759 5759 5760 5761 5762 5762 5763 5763 5763 5764 5763 5763 5763 5762 5761 5761 5760 5759 5758 5757 5756 5754 5753 5752 5751 5749 5749 5748 5747 5745 5743 5741 5740
5735 5737 5739 5741 5742 5743 5744 5745 5746 5747 5748 5749 5750 5751 5751 5752 5752 5752 5752 5752 5753 5752 5752 5751 5750 5750 5749 5748 5747 5746 5745 5744 5743 5742 5741 5739 5738 5737 5735 5734 5733 5732 5730 5728
5728 5729 5731 5733 5734 5735 5736 5737 5738 5738 5739 5740 5740 5741 5741 5742 5742 5741 5742 5742 5742 5741 5741 5740 5739 5738 5737 5736 5735 5734 5733 5733 5732 5731 5730 5728 5727 5725 5724 5722 5721 5720 5719 5718
5721 5722 5723 5725 5726 5727 5728 5728 5729 5730 5730 5731 5731 5731 5731 5731 5731 5731 5731 5731 5731 5731 5730 5729 5728 5727 5726 5725 5724 5723 5723 5722 5722 5721 5719 5718 5717 5715 5713 5712 5710 5709 5708 5707
5714 5715 5716 5717 5718 5719 5720 5720 5721 5721 5721 5722 5722 5722 5722 5722 5722 5722 5722 5721 5721 5721 5720 5719 5718 5717 5716 5715 5714 5713 5712 5712 5711 5710 5709 5708 5707 5705 5704 5702 5701 5700 5699 5698
5707 5708 5709 5710 5710 5711 5712 5712 5712 5713 5713 5713 5713 5713 5713 5713 5713 5713 5713 5713 5712 5711 5711 5710 5709 5708 5706 5705 5704 5704 5703 5702 5702 5701 5700 5698 5697 5695 5694 5693 5692 5690 5689 5689
5699 5700 5701 5702 5703 5704 5704 5705 5705 5705 5705 5705 5705 5705 5705 5705 5705 5705 5704 5704 5704 5703 5702 5701 5699 5698 5698 5697 5696 5695 5694 5693 5693 5692 5691 5690 5688 5687 5686 5684 5683 5682 5681 5680
5693 5694 5694 5695 5696 5696 5697 5698 5698 5698 5698 5697 5697 5697 5697 5697 5697 5696 5696 5695 5695 5694 5693 5692 5691 5690 5689 5688 5687 5686 5686 5685 5684 5683 5683 5682 5680 5679 5678 5677 5675 5674 5673 5672
5687 5687 5688 5688 5689 5689 5689 5690 5690 5690 5690 5690 5690 5690 5690 5689 5689 5688 5688 5688 5687 5685 5684 5683 5682 5681 5680 5679 5678 5678 5677 5676 5676 5675 5675 5673 5672 5671 5670 5669 5668 5667 5665 5665
5681 5682 5682 5682 5682 5682 5682 5683 5683 5683 5683 5683 5683 5683 5683 5682 5682 5681 5680 5680 5679 5677 5676 5675 5674 5672 5671 5670 5669 5669 5669 5668 5667 5667 5666 5666 5665 5664 5663 5662 5661 5659 5658 5657
5677 5677 5677 5677 5677 5676 5676 5676 5677 5677 5677 5676 5676 5676 5676 5675 5675 5674 5673 5672 5671 5669 5668 5667 5666 5665 5664 5663 5662 5661 5661 5660 5660 5659 5659 5658 5658 5657 5656 5655 5654 5653 5652 5651
5673 5673 5673 5672 5672 5671 5671 5671 5671 5671 5671 5670 5670 5670 5669 5669 5668 5666 5665 5664 5663 5662 5661 5660 5659 5658 5657 5656 5656 5655 5654 5654 5653 5652 5652 5651 5651 5650 5649 5648 5647 5646 5644 5643
5669 5669 5669 5668 5668 5667 5667 5667 5667 5667 5666 5666 5665 5664 5664 5663 5662 5660 5659 5657 5656 5655 5654 5653 5653 5652 5651 5650 5650 5649 5649 5648 5647 5646 5645 5645 5644 5643 5642 5641 5640 5638 5637 5635
5666 5666 5666 5665 5665 5664 5664 5663 5663 5663 5663 5662 5662 5661 5659 5658 5657 5655 5654 5652 5651 5650 5648 5648 5647 5646 5646 5645 5644 5643 5643 5642 5641 5640 5639 5638 5637 5636 5635 5634 5632 5631 5629 5627
5664 5663 5663 5663 5662 5661 5661 5660 5660 5660 5660 5659 5658 5658 5656 5655 5653 5652 5650 5649 5647 5646 5645 5644 5643 5642 5641 5640 5639 5638 5637 5636 5635 5634 5633 5632 5631 5629 5628 5626 5625 5623 5622 5620